Regional Weather Roundup
Issued by NWS

Home | Current Version | Previous Version | Graphics & Text | Print | Product List | Glossary On
Versions: 1 2 3 4 5 6 7 8 9 10 11 12 13 14 15 16 17 18 19 20 21 22 23 24 25 26 27 28 29 30 31 32 33 34 35 36 37 38 39 40 41 42 43 44 45 46 47 48 49 50
000
ASUS43 KIND 161759
RWRIN

WEATHER ROUNDUP FOR INDIANA
NATIONAL WEATHER SERVICE INDIANAPOLIS IN
200 PM EDT WED APR 16 2014

NOTE: "FAIR" INDICATES FEW OR NO CLOUDS BELOW 12,000 FEET WITH NO
SIGNIFICANT WEATHER AND/OR OBSTRUCTIONS TO VISIBILITY.

* - STATION DOES NOT REPORT WEATHER SUCH AS PRECIPITATION OR FOG.

+ - STATION NOT QUALITY CONTROLLED BY THE NATIONAL WEATHER SERVICE.
    USE DATA WITH CAUTION...ESPECIALLY DEWPOINT AND RELATIVE
    HUMIDITY OBSERVATIONS.

INZ001>003-010>013-019-020-161900-
NORTHWEST INDIANA

CITY           SKY/WX    TMP DP  RH WIND       PRES   REMARKS
GARY /AIRPORT/ MOSUNNY   46  25  42 SE17G32   30.28F
MONTICELLO +   SUNNY     45  24  44 SE10G17   30.32F
VALPARAISO     SUNNY     46  21  37 S16G23    30.30F
6HR MIN TEMP:  27; 6HR MAX TEMP:  47;


$$

LMZ046-743>745-161900-
SOUTHERN LAKE MICHIGAN

STATION/POSITION TIME  TEMP WIND        PRES
                       AIR  DIR/SP/G
                 (UTC) (F)  (DEG/KT/KT) (MB)
MICHIGAN CITY    1700   42  160/ 14/ 20   N/A

$$

INZ004-005-014>016-021>024-161900-
NORTH CENTRAL INDIANA

CITY           SKY/WX    TMP DP  RH WIND       PRES   REMARKS
GOSHEN         SUNNY     46  19  34 SE20G28   30.34F
6HR MIN TEMP:  28; 6HR MAX TEMP:  46;

PERU/GRISSOM   SUNNY     46  22  39 SE16G24   30.34F
6HR MIN TEMP:  29; 6HR MAX TEMP:  46;

SOUTH BEND     SUNNY     45  18  34 S16G25    30.33F
6HR MIN TEMP:  29; 6HR MAX TEMP:  47;


$$

INZ006>009-017-018-025>027-161900-
NORTHEAST INDIANA

CITY           SKY/WX    TMP DP  RH WIND       PRES   REMARKS
ANGOLA *+      SUNNY     39  21  48 SE14      30.36F
FORT WAYNE     MOSUNNY   44  19  36 E14G21    30.38F
6HR MIN TEMP:  26; 6HR MAX TEMP:  44;


$$

INZ028-029-035-036-043>045-051>053-161900-
WEST CENTRAL INDIANA

CITY           SKY/WX    TMP DP  RH WIND       PRES   REMARKS
GREENCASTLE +  SUNNY     46  25  42 SE12G20   30.32F
LAFAYETTE      SUNNY     46  22  38 SE15G22   30.32F
6HR MIN TEMP:  29; 6HR MAX TEMP:  47;

TERRE HAUTE    SUNNY     48  25  40 SE15G21   30.31F
6HR MIN TEMP:  31; 6HR MAX TEMP:  48;


$$

INZ030>032-037>040-046>048-054>057-064-065-161900-
CENTRAL INDIANA

CITY           SKY/WX    TMP DP  RH WIND       PRES   REMARKS
ANDERSON       SUNNY     45  21  39 SE17G23   30.36F
COLUMBUS       SUNNY     45  19  36 SE12      30.36F
INDIANAPOLIS   MOSUNNY   45  22  40 SE12G22   30.33F
6HR MIN TEMP:  28; 6HR MAX TEMP:  45;

-EAGLE CREEK   SUNNY     44  20  38 SE13G21   30.33F
6HR MIN TEMP:  29; 6HR MAX TEMP:  45;

KOKOMO *+      SUNNY     45  25  45 SE17G23   30.34F
MT COMFORT *+  SUNNY     46  23  39 SE12G18   30.34F
SHELBYVILLE    SUNNY     48  25  40 SE14      30.35F
6HR MIN TEMP:  31; 6HR MAX TEMP:  48;


$$

INZ033-034-041-042-049-050-058-059-161900-
EAST CENTRAL INDIANA

CITY           SKY/WX    TMP DP  RH WIND       PRES   REMARKS
MUNCIE         SUNNY     44  22  41 SE15      30.35F
6HR MIN TEMP:  28; 6HR MAX TEMP:  44;


$$

INZ060-061-067>069-081>083-085>088-161900-
SOUTHWEST INDIANA

CITY           SKY/WX    TMP DP  RH WIND       PRES   REMARKS
EVANSVILLE     MOSUNNY   49  25  39 E12       30.32F
6HR MIN TEMP:  34; 6HR MAX TEMP:  49;

HUNTINGBURG *+ SUNNY     48  25  40 S9G18     30.33F
6HR MIN TEMP:  30; 6HR MAX TEMP:  48;


$$

INZ062-063-066-070>080-084-089>092-161900-
SOUTH CENTRAL AND SOUTHEAST INDIANA

CITY           SKY/WX    TMP DP  RH WIND       PRES   REMARKS
BLOOMINGTON    SUNNY     46  22  38 SE9G18    30.32F
6HR MIN TEMP:  30; 6HR MAX TEMP:  46;


$$




USA.gov is the U.S. government's official web portal to all federal, state and local government web resources and services.